sat.trackr.live / text

‹ back to catalog

STARLINK-36237

NORAD 68337 · 2026-059S

PAYLOAD ACTIVE UNKNOWN

§ Identity

Operator
Country
US
Launch date
2026-03-22
Launch site
AFETR
Launch vehicle
Mass (kg)
RCS (m²)

Purposes: comms

External: N2YO · Heavens-Above · Gunter

§ Orbital elements

Epoch: 2026-09-20T02:52:14.310048Z

Period
93.85 min
Inclination
53.1577°
Eccentricity
0.0001096
Mean motion
15.34403655 rev/d
Perigee alt
461.9 km
Apogee alt
463.4 km
Semi-major
6,840.8 km
B*
5.5896e-4
RAAN
157.3349°
Arg perigee
82.4585°
Mean anomaly
277.6542°
Rev number
2,805

§ Raw data

STARLINK-362371 68337U 26059S   26263.11961007  .00018558  00000+0  55896-3 0  99952 68337  53.1577 157.3349 0001096  82.4585 277.6542 15.34403655 28051

JSON: /api/v1/satellites/68337 · /tle

For live sub-satellite position, see the globe view (requires WebGL).

§ Visibility from observer

Set your observer location to see the next 7 days of passes ≥ 10°. The values pass through the URL so the page stays shareable.

No JS? Fill the form by hand. The geolocation button needs JavaScript.